Home > Weather > Rouen > Past weeks

Flag for France Weather for the Past 2 Weeks in Rouen, France

Now
39 °F

Low clouds.


Feels Like: 32 °F
Forecast: 34 / 43 °F
Wind: 12 mph from East

Location: Rouen Airport

Current Time: Feb 12, 2016 at 3:58:34 PM

Latest Report: Feb 12, 2016 at 3:30 PM


Visibility: N/A

Pressure: 29.24 "Hg

Humidity: 93%

Dew point: 37 °F

Location of RouenLocation

Historic Weather in Rouen — Graph

°F

Rouen Temperature Yesterday

Maximum temperature yesterday: 46 °F (at 1:00 PM)
Minimum temperature yesterday: 32 °F (at 8:30 AM)
Average temperature yesterday: 39 °F

High & Low Weather Summary for the Past Weeks

 TemperatureHumidityPressure
High54 °F (Jan 31, 3:00 PM)100% (Jan 30, 11:00 AM)30.45 "Hg (Jan 30, 11:00 AM)
Low32 °F (Feb 11, 8:30 AM)58% (Feb 6, 4:30 PM)29.00 "Hg (Feb 9, 10:00 AM)
Average45 °F86%29.89 "Hg
* Reported Jan 28 2:00 PM — Feb 12 2:30 PM, Rouen, Weather by CustomWeather, © 2016

Note: Actual official high and low records may vary slightly from our data, if they occured in-between our weather recording intervals... More about our weather records

Advertising

Rouen Weather History for the Previous 24 Hours

 ConditionsComfort  
Time TempWeatherWind HumidityBarometerVisibility
2:30 PM
Fri, Feb 12
39 °FLight rain. Low clouds.14 mph93%29.24 "HgN/A
2:00 PM39 °FLight rain. Low clouds.15 mph93%29.24 "HgN/A
1:30 PM37 °FLight rain. Low clouds.14 mph93%29.24 "HgN/A
1:00 PM37 °FLight rain. Low clouds.17 mph93%29.24 "Hg5 mi
12:30 PM37 °FLight rain. Low clouds.16 mph93%29.27 "HgN/A
12:00 PM37 °FLight rain. Low clouds.17 mph93%29.27 "Hg5 mi
11:30 AM37 °FLight rain. Low clouds.17 mph93%29.27 "Hg5 mi
11:00 AM37 °FLight rain. Low clouds.16 mph93%29.30 "Hg4 mi
10:30 AM37 °FLight rain. Low clouds.16 mph93%29.30 "Hg5 mi
10:00 AM37 °FLight rain. Low clouds.16 mph93%29.30 "Hg5 mi
9:30 AM37 °FLight rain. Low clouds.16 mph93%29.33 "Hg6 mi
9:00 AM37 °FDrizzle. Low clouds.14 mph93%29.36 "HgN/A
8:30 AM37 °FDrizzle. Low clouds.14 mph93%29.36 "Hg4 mi
8:00 AM36 °FLow clouds.12 mph100%29.39 "Hg4 mi
7:30 AM36 °FDrizzle. Low clouds.14 mph100%29.39 "Hg4 mi
7:00 AM36 °FLow clouds.13 mph100%29.42 "Hg5 mi
6:30 AM36 °FLow clouds.12 mph100%29.42 "Hg4 mi
6:00 AM36 °FFog.13 mph100%29.45 "Hg2 mi
5:30 AM36 °FFog.13 mph100%29.47 "Hg1 mi
5:00 AM36 °FFog.12 mph93%29.47 "Hg1 mi
4:30 AM36 °FFog.13 mph93%29.50 "Hg2 mi
4:00 AM34 °FPassing clouds.10 mph93%29.53 "HgN/A
3:30 AM34 °FClear.8 mph93%29.53 "Hg10 mi
3:00 AM36 °FClear.8 mph93%29.56 "Hg10 mi
2:30 AM36 °FClear.6 mph93%29.56 "Hg10 mi
2:00 AM36 °FClear.8 mph93%29.59 "Hg10 mi
1:30 AM34 °FClear.7 mph93%29.59 "Hg10 mi
1:00 AM36 °FClear.7 mph93%29.59 "Hg10 mi
12:30 AM36 °FClear.7 mph93%29.62 "Hg10 mi
12:00 AM36 °FClear.7 mph93%29.62 "Hg10 mi
11:00 PM
Thu, Feb 11
36 °FClear.7 mph93%29.62 "Hg10 mi
10:30 PM37 °FClear.7 mph93%29.65 "Hg10 mi
10:00 PM37 °FClear.5 mph93%29.65 "Hg10 mi
9:30 PM36 °FPassing clouds.6 mph93%29.68 "HgN/A
9:00 PM36 °FPassing clouds.6 mph93%29.68 "HgN/A
8:30 PM36 °FClear.3 mph93%29.68 "Hg10 mi
8:00 PM37 °FPassing clouds.5 mph87%29.68 "HgN/A
7:30 PM37 °FPartly cloudy.6 mph93%29.68 "HgN/A
7:00 PM39 °FPassing clouds.5 mph81%29.68 "HgN/A
6:30 PM41 °FMostly cloudy.6 mph81%29.68 "HgN/A
6:00 PM41 °FOvercast.3 mph81%29.68 "HgN/A
5:30 PM41 °FMostly cloudy.3 mph81%29.68 "HgN/A
5:00 PM41 °FPartly sunny.5 mph81%29.68 "HgN/A
4:30 PM43 °FMostly cloudy.8 mph81%29.68 "HgN/A
4:00 PM43 °FCloudy.8 mph81%29.68 "HgN/A
3:30 PM43 °FMore clouds than sun.6 mph76%29.68 "HgN/A
3:00 PM43 °FOvercast.12 mph76%29.68 "HgN/A
Weather by CustomWeather, © 2016

See weather overviewHow to use our weather pages